Hourly Data Report for December 04, 2021

CARBERRY CS
MANITOBA
Current Station Operator: ECCC - MSC

49°54'20.900" N
99°21'26.800" W
383.50 m
5010547
71170
WZE

Download Data

Hourly Data (December 2021)
Hourly Data Report for December 4, 2021
TIME
LST
Temp Definition
°C
Dew Point Definition
°C
Rel Hum Definition
%
Precip. Amount Definition
mm

Wind Dir Definition
10's deg

Wind Spd Definition
km/h
Visibility Definition
km
Stn Press Definition
kPa
Hmdx Definition


Wind Chill Definition


Weather Definition


00:00 -7.1 -11.1 73 0.0 27 26   97.63   -15 LegendNANA
01:00 -7.9 -11.3 77 0.0 27 21   97.70   -15 LegendNANA
02:00 -9.1 -11.9 80 0.0 27 17   97.73   -16 LegendNANA
03:00 -9.4 -12.0 81 0.0 26 15   97.74   -16 LegendNANA
04:00 -10.6 -12.9 83 0.0 26 11   97.78   -16 LegendNANA
05:00 -10.5 -12.6 84 0.0 24 11   97.83   -16 LegendNANA
06:00 -12.2 -14.0 86 0.0 26 11   97.82   -18 LegendNANA
07:00 -11.9 -13.5 87 0.0 25 11   97.79   -18 LegendNANA
08:00 -11.0 -12.9 86 0.0 25 8   97.80   -16 LegendNANA
09:00 -10.8 -12.6 86 0.0 23 9   97.80   -16 LegendNANA
10:00 -9.8 -11.8 86 0.0 21 5   97.81   -13 LegendNANA
11:00 -7.5 -10.7 78 0.0 26 8   97.80   -12 LegendNANA
12:00 -6.1 -9.8 75 0.0 20 9   97.66   -10 LegendNANA
13:00 -5.6 -9.5 74 0.0 19 14   97.55   -11 LegendNANA
14:00 -4.5 -8.8 72 0.0 18 15   97.39   -10 LegendNANA
15:00 -3.8 -7.9 73 0.0 19 15   97.31   -9 LegendNANA
16:00 -4.1 -7.5 77 0.0 17 10   97.22   -8 LegendNANA
17:00 -5.0 -7.7 81 0.0 15 8   97.17   -9 LegendNANA
18:00 -5.5 -7.9 83 0.0 14 8   97.11   -9 LegendNANA
19:00 -5.2 -7.7 83 0.0 16 12   97.00   -10 LegendNANA
20:00 -5.4 -7.8 83 0.0 17 14   96.94   -11 LegendNANA
21:00 -6.1 -8.1 86 0.0 14 10   96.92   -11 LegendNANA
22:00 -5.9 -7.8 86 0.0 16 12   96.84   -11 LegendNANA
23:00 -5.4 -7.4 85 0.0 17 8   96.84   -9 LegendNANA

Notes on Data Quality.

Legend

  • E = Estimated
  • M = Missing
  • NA = Not Available*
  • [empty] = Indicates an unobserved value
Date modified: